Year,Month,Day,Hour,Minute,Value (Times are PST for temperature in C)
2009,06,27,00,00,13.10
2009,06,27,00,01,13.00
2009,06,27,00,02,13.00
2009,06,27,00,03,12.90
2009,06,27,00,04,12.90
2009,06,27,00,05,12.90
2009,06,27,00,06,12.80
2009,06,27,00,07,12.80
2009,06,27,00,08,12.70
2009,06,27,00,09,12.70
2009,06,27,00,10,12.60
2009,06,27,00,11,12.50
2009,06,27,00,12,12.50
2009,06,27,00,13,12.40
2009,06,27,00,14,12.40
2009,06,27,00,15,12.30
2009,06,27,00,16,12.30
2009,06,27,00,17,12.30
2009,06,27,00,18,12.30
2009,06,27,00,19,12.30
2009,06,27,00,20,12.40
2009,06,27,00,21,12.40
2009,06,27,00,22,12.40
2009,06,27,00,23,12.40
2009,06,27,00,24,12.40
2009,06,27,00,25,12.40
2009,06,27,00,26,12.40
2009,06,27,00,27,12.40
2009,06,27,00,28,12.40
2009,06,27,00,29,12.40
2009,06,27,00,30,12.40
2009,06,27,00,31,12.40
2009,06,27,00,32,12.50
2009,06,27,00,33,12.50
2009,06,27,00,34,12.50
2009,06,27,00,35,12.60
2009,06,27,00,36,12.60
2009,06,27,00,37,12.60
2009,06,27,00,38,12.60
2009,06,27,00,39,12.60
2009,06,27,00,40,12.60
2009,06,27,00,41,12.60
2009,06,27,00,42,12.60
2009,06,27,00,43,12.60
2009,06,27,00,44,12.60
2009,06,27,00,45,12.60
2009,06,27,00,46,12.60
2009,06,27,00,47,12.60
2009,06,27,00,48,12.50
2009,06,27,00,49,12.50
2009,06,27,00,50,12.50
2009,06,27,00,51,12.40
2009,06,27,00,52,12.40
2009,06,27,00,53,12.30
2009,06,27,00,54,12.30
2009,06,27,00,55,12.30
2009,06,27,00,56,12.20
2009,06,27,00,57,12.20
2009,06,27,00,58,12.20
2009,06,27,00,59,12.10
2009,06,27,01,00,12.10
2009,06,27,01,01,12.10
2009,06,27,01,02,12.10
2009,06,27,01,03,12.10
2009,06,27,01,04,12.00
2009,06,27,01,05,12.00
2009,06,27,01,06,12.00
2009,06,27,01,07,12.00
2009,06,27,01,08,12.00
2009,06,27,01,09,11.90
2009,06,27,01,10,11.90
2009,06,27,01,11,12.00
2009,06,27,01,12,12.00
2009,06,27,01,13,12.00
2009,06,27,01,14,12.10
2009,06,27,01,15,12.10
2009,06,27,01,16,12.10
2009,06,27,01,17,12.20
2009,06,27,01,18,12.20
2009,06,27,01,19,12.20
2009,06,27,01,20,12.10
2009,06,27,01,21,12.10
2009,06,27,01,22,12.00
2009,06,27,01,23,12.00
2009,06,27,01,24,11.90
2009,06,27,01,25,11.90
2009,06,27,01,26,11.90
2009,06,27,01,27,11.80
2009,06,27,01,28,11.80
2009,06,27,01,29,11.80
2009,06,27,01,30,11.80
2009,06,27,01,31,11.80
2009,06,27,01,32,11.80
2009,06,27,01,33,11.80
2009,06,27,01,34,11.80
2009,06,27,01,35,11.80
2009,06,27,01,36,11.80
2009,06,27,01,37,11.80
2009,06,27,01,38,11.80
2009,06,27,01,39,11.70
2009,06,27,01,40,11.70
2009,06,27,01,41,11.70
2009,06,27,01,42,11.60
2009,06,27,01,43,11.60
2009,06,27,01,44,11.60
2009,06,27,01,45,11.60
2009,06,27,01,46,11.60
2009,06,27,01,47,11.60
2009,06,27,01,48,11.60
2009,06,27,01,49,11.60
2009,06,27,01,50,11.60
2009,06,27,01,51,11.60
2009,06,27,01,52,11.60
2009,06,27,01,53,11.60
2009,06,27,01,54,11.60
2009,06,27,01,55,11.60
2009,06,27,01,56,11.60
2009,06,27,01,57,11.60
2009,06,27,01,58,11.60
2009,06,27,01,59,11.60
2009,06,27,02,00,11.60
2009,06,27,02,01,11.60
2009,06,27,02,02,11.60
2009,06,27,02,03,11.60
2009,06,27,02,04,11.50
2009,06,27,02,05,11.40
2009,06,27,02,06,11.40
2009,06,27,02,07,11.40
2009,06,27,02,08,11.40
2009,06,27,02,09,11.40
2009,06,27,02,10,11.30
2009,06,27,02,11,11.30
2009,06,27,02,12,11.20
2009,06,27,02,13,11.20
2009,06,27,02,14,11.10
2009,06,27,02,15,11.00
2009,06,27,02,16,10.90
2009,06,27,02,17,10.90
2009,06,27,02,18,10.90
2009,06,27,02,19,10.90
2009,06,27,02,20,10.90
2009,06,27,02,21,10.90
2009,06,27,02,22,10.90
2009,06,27,02,23,10.90
2009,06,27,02,24,10.90
2009,06,27,02,25,10.90
2009,06,27,02,26,10.90
2009,06,27,02,27,10.90
2009,06,27,02,28,10.90
2009,06,27,02,29,10.90
2009,06,27,02,30,10.90
2009,06,27,02,31,10.90
2009,06,27,02,32,10.90
2009,06,27,02,33,10.90
2009,06,27,02,34,10.90
2009,06,27,02,35,10.90
2009,06,27,02,36,10.90
2009,06,27,02,37,10.90
2009,06,27,02,38,10.90
2009,06,27,02,39,10.90
2009,06,27,02,40,10.90
2009,06,27,02,41,10.90
2009,06,27,02,42,10.80
2009,06,27,02,43,10.80
2009,06,27,02,44,10.80
2009,06,27,02,45,10.70
2009,06,27,02,46,10.70
2009,06,27,02,47,10.70
2009,06,27,02,48,10.60
2009,06,27,02,49,10.60
2009,06,27,02,50,10.70
2009,06,27,02,51,10.70
2009,06,27,02,52,10.80
2009,06,27,02,53,10.80
2009,06,27,02,54,10.80
2009,06,27,02,55,10.80
2009,06,27,02,56,10.80
2009,06,27,02,57,10.80
2009,06,27,02,58,10.80
2009,06,27,02,59,10.80
2009,06,27,03,00,10.80
2009,06,27,03,01,10.70
2009,06,27,03,02,10.70
2009,06,27,03,03,10.70
2009,06,27,03,04,10.60
2009,06,27,03,05,10.60
2009,06,27,03,06,10.60
2009,06,27,03,07,10.50
2009,06,27,03,08,10.40
2009,06,27,03,09,10.40
2009,06,27,03,10,10.40
2009,06,27,03,11,10.40
2009,06,27,03,12,10.40
2009,06,27,03,13,10.30
2009,06,27,03,14,10.30
2009,06,27,03,15,10.20
2009,06,27,03,16,10.20
2009,06,27,03,17,10.20
2009,06,27,03,18,10.10
2009,06,27,03,19,10.10
2009,06,27,03,20,10.10
2009,06,27,03,21,9.90
2009,06,27,03,22,9.90
2009,06,27,03,23,9.90
2009,06,27,03,24,9.90
2009,06,27,03,25,9.90
2009,06,27,03,26,9.90
2009,06,27,03,27,9.90
2009,06,27,03,28,9.90
2009,06,27,03,29,9.90
2009,06,27,03,30,9.90
2009,06,27,03,31,9.90
2009,06,27,03,32,9.90
2009,06,27,03,33,9.90
2009,06,27,03,34,9.90
2009,06,27,03,35,9.90
2009,06,27,03,36,9.90
2009,06,27,03,37,9.90
2009,06,27,03,38,9.80
2009,06,27,03,39,9.80
2009,06,27,03,40,9.80
2009,06,27,03,41,9.80
2009,06,27,03,42,9.70
2009,06,27,03,43,9.80
2009,06,27,03,44,9.80
2009,06,27,03,45,9.80
2009,06,27,03,46,9.70
2009,06,27,03,47,9.70
2009,06,27,03,48,9.70
2009,06,27,03,49,9.70
2009,06,27,03,50,9.70
2009,06,27,03,51,9.70
2009,06,27,03,52,9.70
2009,06,27,03,53,9.70
2009,06,27,03,54,9.70
2009,06,27,03,55,9.80
2009,06,27,03,56,9.80
2009,06,27,03,57,9.80
2009,06,27,03,58,9.80
2009,06,27,03,59,9.80
2009,06,27,04,00,9.70
2009,06,27,04,01,9.70
2009,06,27,04,02,9.70
2009,06,27,04,03,9.70
2009,06,27,04,05,9.70
2009,06,27,04,06,9.70
2009,06,27,04,07,9.70
2009,06,27,04,08,9.70
2009,06,27,04,09,9.70
2009,06,27,04,10,9.70
2009,06,27,04,11,9.70
2009,06,27,04,12,9.70
2009,06,27,04,13,9.80
2009,06,27,04,14,9.80
2009,06,27,04,15,9.90
2009,06,27,04,16,9.90
2009,06,27,04,17,9.90
2009,06,27,04,18,9.90
2009,06,27,04,19,9.90
2009,06,27,04,20,9.90
2009,06,27,04,21,9.90
2009,06,27,04,22,9.90
2009,06,27,04,23,9.90
2009,06,27,04,24,9.90
2009,06,27,04,25,9.90
2009,06,27,04,26,9.90
2009,06,27,04,27,9.90
2009,06,27,04,28,9.80
2009,06,27,04,29,9.80
2009,06,27,04,30,9.80
2009,06,27,04,31,9.80
2009,06,27,04,32,9.80
2009,06,27,04,33,9.80
2009,06,27,04,34,9.90
2009,06,27,04,35,9.80
2009,06,27,04,36,9.80
2009,06,27,04,37,9.80
2009,06,27,04,38,9.80
2009,06,27,04,39,9.70
2009,06,27,04,40,9.70
2009,06,27,04,41,9.70
2009,06,27,04,42,9.70
2009,06,27,04,43,9.70
2009,06,27,04,44,9.70
2009,06,27,04,45,9.70
2009,06,27,04,46,9.60
2009,06,27,04,47,9.60
2009,06,27,04,48,9.60
2009,06,27,04,49,9.50
2009,06,27,04,50,9.50
2009,06,27,04,51,9.40
2009,06,27,04,52,9.40
2009,06,27,04,53,9.40
2009,06,27,04,54,9.30
2009,06,27,04,55,9.30
2009,06,27,04,56,9.30
2009,06,27,04,57,9.30
2009,06,27,04,58,9.30
2009,06,27,04,59,9.30
2009,06,27,05,00,9.20
2009,06,27,05,01,9.20
2009,06,27,05,02,9.20
2009,06,27,05,03,9.20
2009,06,27,05,04,9.20
2009,06,27,05,05,9.20
2009,06,27,05,06,9.20
2009,06,27,05,07,9.10
2009,06,27,05,08,9.10
2009,06,27,05,09,9.00
2009,06,27,05,10,9.00
2009,06,27,05,11,9.00
2009,06,27,05,12,9.00
2009,06,27,05,13,9.10
2009,06,27,05,14,9.10
2009,06,27,05,15,9.00
2009,06,27,05,16,9.00
2009,06,27,05,17,9.00
2009,06,27,05,18,8.90
2009,06,27,05,19,8.90
2009,06,27,05,20,9.00
2009,06,27,05,21,9.00
2009,06,27,05,22,9.00
2009,06,27,05,23,9.10
2009,06,27,05,24,9.20
2009,06,27,05,25,9.20
2009,06,27,05,26,9.30
2009,06,27,05,27,9.30
2009,06,27,05,28,9.40
2009,06,27,05,29,9.40
2009,06,27,05,30,9.50
2009,06,27,05,31,9.50
2009,06,27,05,32,9.50
2009,06,27,05,33,9.60
2009,06,27,05,34,9.60
2009,06,27,05,35,9.70
2009,06,27,05,36,9.70
2009,06,27,05,37,9.70
2009,06,27,05,38,9.80
2009,06,27,05,39,9.80
2009,06,27,05,40,9.90
2009,06,27,05,41,9.90
2009,06,27,05,42,9.90
2009,06,27,05,43,9.90
2009,06,27,05,44,9.90
2009,06,27,05,45,9.90
2009,06,27,05,46,9.90
2009,06,27,05,47,9.90
2009,06,27,05,48,10.10
2009,06,27,05,49,10.10
2009,06,27,05,50,10.10
2009,06,27,05,51,10.10
2009,06,27,05,52,10.10
2009,06,27,05,53,10.10
2009,06,27,05,54,10.10
2009,06,27,05,55,10.10
2009,06,27,05,56,10.10
2009,06,27,05,57,10.10
2009,06,27,05,58,10.10
2009,06,27,05,59,10.10
2009,06,27,06,00,10.10
2009,06,27,06,01,10.10
2009,06,27,06,02,10.10
2009,06,27,06,03,10.10
2009,06,27,06,04,10.10
2009,06,27,06,05,10.20
2009,06,27,06,06,10.20
2009,06,27,06,07,10.20
2009,06,27,06,08,10.30
2009,06,27,06,09,10.40
2009,06,27,06,10,10.40
2009,06,27,06,11,10.50
2009,06,27,06,12,10.60
2009,06,27,06,13,10.60
2009,06,27,06,14,10.60
2009,06,27,06,15,10.70
2009,06,27,06,16,10.70
2009,06,27,06,17,10.70
2009,06,27,06,18,10.80
2009,06,27,06,19,10.80
2009,06,27,06,20,10.80
2009,06,27,06,21,10.80
2009,06,27,06,22,10.80
2009,06,27,06,23,10.90
2009,06,27,06,24,10.90
2009,06,27,06,25,10.90
2009,06,27,06,26,10.90
2009,06,27,06,27,10.90
2009,06,27,06,28,10.90
2009,06,27,06,29,10.90
2009,06,27,06,30,10.90
2009,06,27,06,31,10.90
2009,06,27,06,32,10.90
2009,06,27,06,33,10.90
2009,06,27,06,34,10.90
2009,06,27,06,35,10.90
2009,06,27,06,36,10.90
2009,06,27,06,37,10.90
2009,06,27,06,38,10.90
2009,06,27,06,39,11.00
2009,06,27,06,40,11.10
2009,06,27,06,41,11.10
2009,06,27,06,42,11.10
2009,06,27,06,43,11.10
2009,06,27,06,44,11.10
2009,06,27,06,45,11.10
2009,06,27,06,46,11.10
2009,06,27,06,47,11.10
2009,06,27,06,48,11.10
2009,06,27,06,49,11.20
2009,06,27,06,50,11.20
2009,06,27,06,51,11.20
2009,06,27,06,52,11.20
2009,06,27,06,53,11.20
2009,06,27,06,54,11.20
2009,06,27,06,55,11.30
2009,06,27,06,56,11.30
2009,06,27,06,57,11.30
2009,06,27,06,58,11.30
2009,06,27,06,59,11.30
2009,06,27,07,00,11.30
2009,06,27,07,01,11.30
2009,06,27,07,02,11.40
2009,06,27,07,03,11.40
2009,06,27,07,04,11.40
2009,06,27,07,05,11.40
2009,06,27,07,06,11.40
2009,06,27,07,07,11.50
2009,06,27,07,08,11.60
2009,06,27,07,09,11.60
2009,06,27,07,10,11.60
2009,06,27,07,11,11.70
2009,06,27,07,12,11.80
2009,06,27,07,13,11.80
2009,06,27,07,14,11.80
2009,06,27,07,15,11.90
2009,06,27,07,16,12.00
2009,06,27,07,17,12.00
2009,06,27,07,18,12.10
2009,06,27,07,19,12.10
2009,06,27,07,20,12.20
2009,06,27,07,21,12.20
2009,06,27,07,22,12.20
2009,06,27,07,23,12.30
2009,06,27,07,24,12.30
2009,06,27,07,25,12.30
2009,06,27,07,26,12.30
2009,06,27,07,27,12.30
2009,06,27,07,28,12.40
2009,06,27,07,29,12.40
2009,06,27,07,30,12.50
2009,06,27,07,31,12.50
2009,06,27,07,32,12.60
2009,06,27,07,33,12.70
2009,06,27,07,34,12.80
2009,06,27,07,35,12.80
2009,06,27,07,36,12.90
2009,06,27,07,37,12.90
2009,06,27,07,38,13.00
2009,06,27,07,39,13.00
2009,06,27,07,40,13.10
2009,06,27,07,41,13.10
2009,06,27,07,42,13.20
2009,06,27,07,43,13.30
2009,06,27,07,44,13.30
2009,06,27,07,45,13.30
2009,06,27,07,46,13.30
2009,06,27,07,47,13.30
2009,06,27,07,48,13.30
2009,06,27,07,49,13.30
2009,06,27,07,50,13.30
2009,06,27,07,51,13.30
2009,06,27,07,52,13.40
2009,06,27,07,53,13.40
2009,06,27,07,54,13.40
2009,06,27,07,55,13.40
2009,06,27,07,56,13.40
2009,06,27,07,57,13.40
2009,06,27,07,58,13.40
2009,06,27,07,59,13.40
2009,06,27,08,00,13.40
2009,06,27,08,01,13.40
2009,06,27,08,02,13.40
2009,06,27,08,03,13.40
2009,06,27,08,04,13.40
2009,06,27,08,05,13.40
2009,06,27,08,06,13.50
2009,06,27,08,07,13.50
2009,06,27,08,08,13.60
2009,06,27,08,09,13.70
2009,06,27,08,10,13.70
2009,06,27,08,11,13.80
2009,06,27,08,12,13.80
2009,06,27,08,13,13.80
2009,06,27,08,14,13.80
2009,06,27,08,15,13.90
2009,06,27,08,16,13.90
2009,06,27,08,17,13.90
2009,06,27,08,18,14.00
2009,06,27,08,19,14.00
2009,06,27,08,20,14.10
2009,06,27,08,21,14.10
2009,06,27,08,22,14.10
2009,06,27,08,23,14.10
2009,06,27,08,24,14.10
2009,06,27,08,25,14.10
2009,06,27,08,26,14.20
2009,06,27,08,27,14.20
2009,06,27,08,28,14.10
2009,06,27,08,29,14.10
2009,06,27,08,30,14.10
2009,06,27,08,31,14.20
2009,06,27,08,32,14.20
2009,06,27,08,33,14.20
2009,06,27,08,34,14.30
2009,06,27,08,35,14.30
2009,06,27,08,36,14.40
2009,06,27,08,37,14.40
2009,06,27,08,38,14.40
2009,06,27,08,39,14.50
2009,06,27,08,40,14.50
2009,06,27,08,41,14.50
2009,06,27,08,42,14.50
2009,06,27,08,43,14.60
2009,06,27,08,44,14.60
2009,06,27,08,45,14.60
2009,06,27,08,46,14.60
2009,06,27,08,47,14.50
2009,06,27,08,48,14.40
2009,06,27,08,49,14.40
2009,06,27,08,50,14.30
2009,06,27,08,51,14.30
2009,06,27,08,52,14.30
2009,06,27,08,53,14.30
2009,06,27,08,54,14.30
2009,06,27,08,55,14.40
2009,06,27,08,56,14.40
2009,06,27,08,57,14.40
2009,06,27,08,58,14.40
2009,06,27,08,59,14.50
2009,06,27,09,00,14.60
2009,06,27,09,01,14.70
2009,06,27,09,02,14.80
2009,06,27,09,03,14.80
2009,06,27,09,04,14.90
2009,06,27,09,05,15.00
2009,06,27,09,06,15.00
2009,06,27,09,07,15.10
2009,06,27,09,08,15.20
2009,06,27,09,09,15.30
2009,06,27,09,10,15.40
2009,06,27,09,11,15.50
2009,06,27,09,12,15.60
2009,06,27,09,13,15.70
2009,06,27,09,14,15.70
2009,06,27,09,15,15.80
2009,06,27,09,16,15.80
2009,06,27,09,17,15.80
2009,06,27,09,18,15.80
2009,06,27,09,19,15.90
2009,06,27,09,20,15.90
2009,06,27,09,21,15.90
2009,06,27,09,22,16.00
2009,06,27,09,23,16.10
2009,06,27,09,24,16.10
2009,06,27,09,25,16.10
2009,06,27,09,26,16.10
2009,06,27,09,27,16.10
2009,06,27,09,28,16.10
2009,06,27,09,29,16.10
2009,06,27,09,30,16.00
2009,06,27,09,31,15.90
2009,06,27,09,32,15.90
2009,06,27,09,33,15.90
2009,06,27,09,34,15.90
2009,06,27,09,35,15.90
2009,06,27,09,36,15.90
2009,06,27,09,37,15.90
2009,06,27,09,38,15.90
2009,06,27,09,39,15.90
2009,06,27,09,40,16.00
2009,06,27,09,41,16.10
2009,06,27,09,42,16.10
2009,06,27,09,43,16.10
2009,06,27,09,44,16.20
2009,06,27,09,45,16.20
2009,06,27,09,46,16.20
2009,06,27,09,47,16.20
2009,06,27,09,48,16.10
2009,06,27,09,49,16.10
2009,06,27,09,50,16.10
2009,06,27,09,51,16.10
2009,06,27,09,52,16.10
2009,06,27,09,53,16.10
2009,06,27,09,54,16.00
2009,06,27,09,55,15.90
2009,06,27,09,56,15.80
2009,06,27,09,57,15.80
2009,06,27,09,58,15.80
2009,06,27,09,59,15.90
2009,06,27,10,00,15.90
2009,06,27,10,01,15.90
2009,06,27,10,02,16.00
2009,06,27,10,03,16.10
2009,06,27,10,04,16.20
2009,06,27,10,05,16.30
2009,06,27,10,06,16.40
2009,06,27,10,07,16.40
2009,06,27,10,08,16.50
2009,06,27,10,09,16.60
2009,06,27,10,10,16.70
2009,06,27,10,11,16.90
2009,06,27,10,12,17.00
2009,06,27,10,13,17.00
2009,06,27,10,14,16.90
2009,06,27,10,15,16.90
2009,06,27,10,16,16.90
2009,06,27,10,17,16.80
2009,06,27,10,18,16.80
2009,06,27,10,19,16.70
2009,06,27,10,20,16.70
2009,06,27,10,21,16.70
2009,06,27,10,22,16.70
2009,06,27,10,23,16.70
2009,06,27,10,24,16.70
2009,06,27,10,25,16.60
2009,06,27,10,26,16.50
2009,06,27,10,27,16.40
2009,06,27,10,28,16.40
2009,06,27,10,29,16.40
2009,06,27,10,30,16.40
2009,06,27,10,31,16.40
2009,06,27,10,32,16.40
2009,06,27,10,33,16.40
2009,06,27,10,34,16.40
2009,06,27,10,35,16.60
2009,06,27,10,36,16.60
2009,06,27,10,37,16.60
2009,06,27,10,38,16.60
2009,06,27,10,39,16.60
2009,06,27,10,40,16.70
2009,06,27,10,41,16.80
2009,06,27,10,42,16.80
2009,06,27,10,43,16.80
2009,06,27,10,44,16.90
2009,06,27,10,45,17.00
2009,06,27,10,46,17.00
2009,06,27,10,47,17.00
2009,06,27,10,48,16.90
2009,06,27,10,49,16.90
2009,06,27,10,50,16.90
2009,06,27,10,51,16.80
2009,06,27,10,52,16.80
2009,06,27,10,53,16.70
2009,06,27,10,54,16.70
2009,06,27,10,55,16.70
2009,06,27,10,56,16.70
2009,06,27,10,57,16.70
2009,06,27,10,58,16.70
2009,06,27,10,59,16.70
2009,06,27,11,00,16.70
2009,06,27,11,01,16.80
2009,06,27,11,02,16.80
2009,06,27,11,03,16.70
2009,06,27,11,04,16.70
2009,06,27,11,05,16.70
2009,06,27,11,06,16.70
2009,06,27,11,07,16.80
2009,06,27,11,08,16.90
2009,06,27,11,09,17.00
2009,06,27,11,10,17.00
2009,06,27,11,11,17.10
2009,06,27,11,12,17.10
2009,06,27,11,13,17.20
2009,06,27,11,14,17.30
2009,06,27,11,15,17.30
2009,06,27,11,16,17.30
2009,06,27,11,17,17.30
2009,06,27,11,18,17.10
2009,06,27,11,19,17.00
2009,06,27,11,20,17.00
2009,06,27,11,21,17.00
2009,06,27,11,22,17.00
2009,06,27,11,23,17.00
2009,06,27,11,24,17.00
2009,06,27,11,25,17.00
2009,06,27,11,26,16.90
2009,06,27,11,27,16.80
2009,06,27,11,28,16.70
2009,06,27,11,29,16.60
2009,06,27,11,30,16.50
2009,06,27,11,31,16.60
2009,06,27,11,32,16.60
2009,06,27,11,33,16.60
2009,06,27,11,34,16.70
2009,06,27,11,35,16.80
2009,06,27,11,36,16.90
2009,06,27,11,37,16.90
2009,06,27,11,38,16.90
2009,06,27,11,39,16.90
2009,06,27,11,40,16.90
2009,06,27,11,41,16.90
2009,06,27,11,42,16.90
2009,06,27,11,43,17.00
2009,06,27,11,44,17.00
2009,06,27,11,45,17.10
2009,06,27,11,46,17.10
2009,06,27,11,47,17.20
2009,06,27,11,48,17.20
2009,06,27,11,49,17.30
2009,06,27,11,50,17.30
2009,06,27,11,51,17.30
2009,06,27,11,52,17.30
2009,06,27,11,53,17.30
2009,06,27,11,54,17.30
2009,06,27,11,55,17.40
2009,06,27,11,56,17.50
2009,06,27,11,57,17.60
2009,06,27,11,58,17.70
2009,06,27,11,59,17.60
2009,06,27,12,00,17.50
2009,06,27,12,01,17.40
2009,06,27,12,02,17.30
2009,06,27,12,03,17.30
2009,06,27,12,04,17.30
2009,06,27,12,05,17.30
2009,06,27,12,06,17.20
2009,06,27,12,07,17.00
2009,06,27,12,08,16.90
2009,06,27,12,09,16.90
2009,06,27,12,10,16.80
2009,06,27,12,11,16.90
2009,06,27,12,12,16.90
2009,06,27,12,13,16.90
2009,06,27,12,14,17.00
2009,06,27,12,15,17.00
2009,06,27,12,16,17.00
2009,06,27,12,17,17.00
2009,06,27,12,18,16.90
2009,06,27,12,19,16.90
2009,06,27,12,20,16.90
2009,06,27,12,21,16.90
2009,06,27,12,22,16.90
2009,06,27,12,23,16.80
2009,06,27,12,24,16.80
2009,06,27,12,25,16.80
2009,06,27,12,26,16.80
2009,06,27,12,27,16.70
2009,06,27,12,28,16.70
2009,06,27,12,29,16.70
2009,06,27,12,30,16.80
2009,06,27,12,31,16.80
2009,06,27,12,32,16.80
2009,06,27,12,33,16.90
2009,06,27,12,34,16.90
2009,06,27,12,35,16.90
2009,06,27,12,36,16.80
2009,06,27,12,37,16.70
2009,06,27,12,38,16.80
2009,06,27,12,39,16.90
2009,06,27,12,40,16.90
2009,06,27,12,41,16.90
2009,06,27,12,42,16.80
2009,06,27,12,43,16.70
2009,06,27,12,44,16.70
2009,06,27,12,45,16.70
2009,06,27,12,46,16.60
2009,06,27,12,47,16.50
2009,06,27,12,48,16.40
2009,06,27,12,49,16.40
2009,06,27,12,50,16.60
2009,06,27,12,51,16.40
2009,06,27,12,52,16.60
2009,06,27,12,53,16.60
2009,06,27,12,54,16.70
2009,06,27,12,55,16.60
2009,06,27,12,56,16.60
2009,06,27,12,57,16.40
2009,06,27,12,58,16.40
2009,06,27,12,59,16.50
2009,06,27,13,00,16.60
2009,06,27,13,01,16.70
2009,06,27,13,02,16.70
2009,06,27,13,03,16.80
2009,06,27,13,04,16.90
2009,06,27,13,05,17.00
2009,06,27,13,06,17.00
2009,06,27,13,07,17.10
2009,06,27,13,08,17.00
2009,06,27,13,09,17.00
2009,06,27,13,10,17.10
2009,06,27,13,11,17.00
2009,06,27,13,12,17.00
2009,06,27,13,13,17.10
2009,06,27,13,14,17.00
2009,06,27,13,15,16.90
2009,06,27,13,16,16.80
2009,06,27,13,17,16.70
2009,06,27,13,18,16.80
2009,06,27,13,19,16.80
2009,06,27,13,20,16.70
2009,06,27,13,21,16.70
2009,06,27,13,22,16.70
2009,06,27,13,23,16.70
2009,06,27,13,24,16.70
2009,06,27,13,25,16.60
2009,06,27,13,26,16.60
2009,06,27,13,27,16.60
2009,06,27,13,28,16.50
2009,06,27,13,29,16.40
2009,06,27,13,30,16.40
2009,06,27,13,31,16.40
2009,06,27,13,32,16.40
2009,06,27,13,33,16.40
2009,06,27,13,34,16.40
2009,06,27,13,35,16.40
2009,06,27,13,36,16.40
2009,06,27,13,37,16.40
2009,06,27,13,38,16.30
2009,06,27,13,39,16.20
2009,06,27,13,40,16.20
2009,06,27,13,41,16.30
2009,06,27,13,42,16.30
2009,06,27,13,43,16.30
2009,06,27,13,44,16.30
2009,06,27,13,45,16.20
2009,06,27,13,46,16.20
2009,06,27,13,47,16.20
2009,06,27,13,48,16.10
2009,06,27,13,49,16.00
2009,06,27,13,50,15.90
2009,06,27,13,51,15.90
2009,06,27,13,52,15.90
2009,06,27,13,53,15.90
2009,06,27,13,54,15.90
2009,06,27,13,55,15.90
2009,06,27,13,56,16.00
2009,06,27,13,57,16.10
2009,06,27,13,58,16.10
2009,06,27,13,59,16.00
2009,06,27,14,00,15.90
2009,06,27,14,01,15.80
2009,06,27,14,02,15.70
2009,06,27,14,03,15.60
2009,06,27,14,04,15.50
2009,06,27,14,05,15.50
2009,06,27,14,06,15.40
2009,06,27,14,07,15.30
2009,06,27,14,08,15.30
2009,06,27,14,09,15.30
2009,06,27,14,10,15.30
2009,06,27,14,11,15.30
2009,06,27,14,12,15.30
2009,06,27,14,13,15.20
2009,06,27,14,14,15.10
2009,06,27,14,15,15.10
2009,06,27,14,16,15.00
2009,06,27,14,17,14.90
2009,06,27,14,18,14.90
2009,06,27,14,19,14.80
2009,06,27,14,20,14.80
2009,06,27,14,21,14.80
2009,06,27,14,22,14.80
2009,06,27,14,23,14.80
2009,06,27,14,24,14.80
2009,06,27,14,25,14.80
2009,06,27,14,26,14.70
2009,06,27,14,27,14.70
2009,06,27,14,28,14.60
2009,06,27,14,29,14.50
2009,06,27,14,30,14.30
2009,06,27,14,31,14.20
2009,06,27,14,32,14.10
2009,06,27,14,33,14.00
2009,06,27,14,34,14.00
2009,06,27,14,35,13.90
2009,06,27,14,36,13.90
2009,06,27,14,37,13.80
2009,06,27,14,38,13.80
2009,06,27,14,39,13.70
2009,06,27,14,40,13.70
2009,06,27,14,41,13.70
2009,06,27,14,42,13.70
2009,06,27,14,43,13.70
2009,06,27,14,44,13.80
2009,06,27,14,45,13.80
2009,06,27,14,46,13.70
2009,06,27,14,47,13.70
2009,06,27,14,48,13.80
2009,06,27,14,49,13.80
2009,06,27,14,50,13.70
2009,06,27,14,51,13.70
2009,06,27,14,52,13.70
2009,06,27,14,53,13.70
2009,06,27,14,54,13.60
2009,06,27,14,55,13.50
2009,06,27,14,56,13.40
2009,06,27,14,57,13.30
2009,06,27,14,58,13.30
2009,06,27,14,59,13.20
2009,06,27,15,00,13.10
2009,06,27,15,01,13.00
2009,06,27,15,02,13.00
2009,06,27,15,03,13.00
2009,06,27,15,04,13.00
2009,06,27,15,05,12.90
2009,06,27,15,06,12.80
2009,06,27,15,07,12.80
2009,06,27,15,08,12.80
2009,06,27,15,09,12.80
2009,06,27,15,10,12.80
2009,06,27,15,11,12.80
2009,06,27,15,12,12.80
2009,06,27,15,13,12.80
2009,06,27,15,14,12.80
2009,06,27,15,15,12.90
2009,06,27,15,16,12.90
2009,06,27,15,17,12.90
2009,06,27,15,18,12.90
2009,06,27,15,19,12.90
2009,06,27,15,20,12.90
2009,06,27,15,21,12.90
2009,06,27,15,22,13.00
2009,06,27,15,23,13.00
2009,06,27,15,24,13.10
2009,06,27,15,25,13.10
2009,06,27,15,26,13.20
2009,06,27,15,27,13.20
2009,06,27,15,28,13.10
2009,06,27,15,29,13.10
2009,06,27,15,30,13.00
2009,06,27,15,31,13.00
2009,06,27,15,32,13.00
2009,06,27,15,33,13.00
2009,06,27,15,34,13.00
2009,06,27,15,35,13.00
2009,06,27,15,36,13.00
2009,06,27,15,37,12.90
2009,06,27,15,38,13.00
2009,06,27,15,39,13.00
2009,06,27,15,40,13.10
2009,06,27,15,41,13.10
2009,06,27,15,42,13.10
2009,06,27,15,43,13.00
2009,06,27,15,44,13.00
2009,06,27,15,45,12.90
2009,06,27,15,46,12.90
2009,06,27,15,47,13.00
2009,06,27,15,48,12.90
2009,06,27,15,49,12.90
2009,06,27,15,50,12.90
2009,06,27,15,51,12.90
2009,06,27,15,52,12.90
2009,06,27,15,53,13.00
2009,06,27,15,54,13.00
2009,06,27,15,55,13.00
2009,06,27,15,56,13.00
2009,06,27,15,57,13.00
2009,06,27,15,58,13.00
2009,06,27,15,59,13.00
2009,06,27,16,00,13.00
2009,06,27,16,01,13.00
2009,06,27,16,02,13.00
2009,06,27,16,03,13.00
2009,06,27,16,04,13.10
2009,06,27,16,05,13.10
2009,06,27,16,06,13.20
2009,06,27,16,07,13.20
2009,06,27,16,08,13.20
2009,06,27,16,09,13.20
2009,06,27,16,10,13.20
2009,06,27,16,11,13.20
2009,06,27,16,12,13.20
2009,06,27,16,13,13.20
2009,06,27,16,14,13.20
2009,06,27,16,15,13.20
2009,06,27,16,16,13.20
2009,06,27,16,17,13.20
2009,06,27,16,18,13.20
2009,06,27,16,19,13.20
2009,06,27,16,20,13.20
2009,06,27,16,21,13.30
2009,06,27,16,22,13.30
2009,06,27,16,23,13.20
2009,06,27,16,24,13.10
2009,06,27,16,25,13.00
2009,06,27,16,26,13.00
2009,06,27,16,27,12.90
2009,06,27,16,28,12.90
2009,06,27,16,29,12.90
2009,06,27,16,30,12.80
2009,06,27,16,31,12.80
2009,06,27,16,32,12.80
2009,06,27,16,33,12.80
2009,06,27,16,34,12.80
2009,06,27,16,35,12.80
2009,06,27,16,36,12.80
2009,06,27,16,37,12.80
2009,06,27,16,38,12.80
2009,06,27,16,39,12.80
2009,06,27,16,40,12.80
2009,06,27,16,41,12.80
2009,06,27,16,42,12.80
2009,06,27,16,43,12.80
2009,06,27,16,44,12.80
2009,06,27,16,45,12.80
2009,06,27,16,46,12.80
2009,06,27,16,47,12.80
2009,06,27,16,48,12.80
2009,06,27,16,49,12.80
2009,06,27,16,50,12.80
2009,06,27,16,51,12.80
2009,06,27,16,52,12.80
2009,06,27,16,53,12.80
2009,06,27,16,54,12.90
2009,06,27,16,55,12.90
2009,06,27,16,56,12.90
2009,06,27,16,57,12.90
2009,06,27,16,58,12.90
2009,06,27,16,59,12.90
2009,06,27,17,00,12.90
2009,06,27,17,01,12.90
2009,06,27,17,02,12.90
2009,06,27,17,03,12.90
2009,06,27,17,04,12.90
2009,06,27,17,05,12.90
2009,06,27,17,06,12.80
2009,06,27,17,07,12.90
2009,06,27,17,08,13.00
2009,06,27,17,09,13.00
2009,06,27,17,10,13.00
2009,06,27,17,11,13.00
2009,06,27,17,12,13.00
2009,06,27,17,13,13.00
2009,06,27,17,14,13.00
2009,06,27,17,15,13.00
2009,06,27,17,16,12.90
2009,06,27,17,17,12.90
2009,06,27,17,18,12.90
2009,06,27,17,19,12.90
2009,06,27,17,20,12.90
2009,06,27,17,21,12.90
2009,06,27,17,22,12.90
2009,06,27,17,23,13.00
2009,06,27,17,24,13.00
2009,06,27,17,25,13.10
2009,06,27,17,26,13.10